Qianfan 05-18

operational
NORAD ID: 63176 Int'l Des: 2025-046 Owner: YUANX Country: CN Constellation: qianfan
LEOCIRCULARPOLAR

About Qianfan 05-18

Description loading...

Live Position

Loading 3D Globe...

Upcoming Passes

Altitude History

Altitude vs Time

uPlot chart will show altitude changes over time

Two-Line Element Set

1 63176U 25046T 25312.76164557 .00000014 00000-0 27709-5 0 9999
2 63176 88.9758 323.5304 0012226 215.4313 144.6027 13.50974100 42833
Epoch: Nov 8, 2025 • Age: 58 hours

Current Status

Altitude 1093.6 km
Velocity 7.31 km/s
Sub-Earth Point -70.35°S, 159.02°W
Launch Date Mar 11, 2025
Age 0.6 years
Type internet

Technical Details

Classification Payload
Mass 267.00 kg
Dry Mass 267.00 kg
Total Mass 267.00 kg
Length 0.30 m
Diameter 3.00 m
Span 10.00 m
Shape Box+pan
Manufacturer GESIH
Bus Type Qianfan
Phase Status In Orbit
Owner/State YUANX/CN

Large Constellations

Loading constellations...